Regional Weather Roundup
Issued by NWS

Home | Current Version | Previous Version | Text Only | Print | Product List | Glossary Off
Versions: 1 2 3 4 5 6 7 8 9 10 11 12 13 14 15 16 17 18 19 20 21 22 23 24 25 26 27 28 29 30 31 32 33 34 35 36 37 38 39 40 41 42 43 44 45 46 47 48 49 50

000
ASUS43 KMKX 261811
RWRWI

WISCONSIN REGIONAL WEATHER ROUNDUP
NATIONAL WEATHER SERVICE MILWAUKEE/SULLIVAN WI
100 PM CDT MON JUN 26 2017

NOTE: "FAIR" INDICATES FEW OR NO CLOUDS BELOW 12,000 FEET WITH NO
SIGNIFICANT WEATHER AND/OR OBSTRUCTIONS TO VISIBILITY.

WIZ001-002-006>008-014>016-023>028-261900-
NORTHWEST WISCONSIN

CITY           SKY/WX    TMP DP  RH WIND       PRES   REMARKS
SUPERIOR ARPT  NOT AVBL
ASHLAND        MOSUNNY   65  49  56 W8        30.10F
6HR MIN TEMP:  48; 6HR MAX TEMP:  65;

HAYWARD        MOSUNNY   63  43  48 VRB6      30.12F
6HR MIN TEMP:  46; 6HR MAX TEMP:  64; 6HR PCP: TRACE;

SIREN          CLOUDY    65  42  43 N10       30.14S
6HR MIN TEMP:  46; 6HR MAX TEMP:  65;

CUMBERLAND     CLOUDY    61  43  51 N10G17    30.13F
RICE LAKE      PTSUNNY   63  43  48 NW10      30.15S
6HR MIN TEMP:  46; 6HR MAX TEMP:  64;

CHETEK         PTSUNNY   63  48  57 N8        30.13F
6HR MIN TEMP:  47; 6HR MAX TEMP:  63;

LADYSMITH      PTSUNNY   60  46  58 NW12G17   30.14S
6HR MIN TEMP:  47; 6HR MAX TEMP:  62; 6HR PCP:  0.01;

EAU CLAIRE     PTSUNNY   64  45  49 NW14      30.13S
6HR MIN TEMP:  49; 6HR MAX TEMP:  66;

MENOMONIE      PTSUNNY   65  45  47 NW12      30.14S
6HR MIN TEMP:  49; 6HR MAX TEMP:  65;

NEW RICHMOND   MOSUNNY   67  40  37 NW9       30.16S
6HR MIN TEMP:  49; 6HR MAX TEMP:  67;

OSCEOLA        PTSUNNY   66  43  43 NW10      30.18F
6HR MIN TEMP:  47; 6HR MAX TEMP:  67;

$$

WIZ003>005-009-010-017-018-261900-
NORTH CENTRAL WISCONSIN

CITY           SKY/WX    TMP DP  RH WIND       PRES   REMARKS
MANITOWISH WTR CLOUDY    57  49  76 N10       30.09F
6HR MIN TEMP:  45; 6HR MAX TEMP:  57; 6HR PCP:  0.08;

ARBOR VITAE    CLOUDY    55  47  76 N14       30.09R
6HR MIN TEMP:  46; 6HR MAX TEMP:  55;

WOODRUFF       CLOUDY    55  47  76 N14       30.09R
6HR MIN TEMP:  46; 6HR MAX TEMP:  55;

RHINELANDER    CLOUDY    54  46  74 NW9G16    30.08R
6HR MIN TEMP:  46; 6HR MAX TEMP:  54; 6HR PCP:  0.02;

EAGLE RIVER    CLOUDY    55  43  64 N16G22    30.07R
6HR MIN TEMP:  46; 6HR MAX TEMP:  55;

LAND O LAKES   CLOUDY    55  44  68 N15G21    30.09R
6HR MIN TEMP:  46; 6HR MAX TEMP:  55;

PHILLIPS       CLOUDY    56  45  65 N8        30.10F
6HR MIN TEMP:  44; 6HR MAX TEMP:  58; 6HR PCP:  0.02;

TOMAHAWK       NOT AVBL
MEDFORD        CLOUDY    56  44  62 N9        30.10S
6HR MIN TEMP:  45; 6HR MAX TEMP:  57;

MERRILL        CLOUDY    54  45  73 N14G23    30.09S
6HR MIN TEMP:  47; 6HR MAX TEMP:  54;

$$

WIZ029-030-035-036-043>047-261900-
CENTRAL WISCONSIN

CITY           SKY/WX    TMP DP  RH WIND       PRES   REMARKS
WAUSAU         CLOUDY    54  44  69 NW14G21   30.07R
6HR MIN TEMP:  48; 6HR MAX TEMP:  55; 6HR PCP: TRACE;

MOSINEE        CLOUDY    55  46  71 NW14G22   30.10R
MARSHFIELD     CLOUDY    57  46  66 NW15G21   30.09F
6HR MIN TEMP:  48; 6HR MAX TEMP:  60; 6HR PCP: TRACE;

STEVENS POINT  CLOUDY    54  43  65 NW9G20    30.09S
6HR MIN TEMP:  47; 6HR MAX TEMP:  55;

WAUPACA        CLOUDY    59  45  60 NW10G17   30.07R
6HR MIN TEMP:  52; 6HR MAX TEMP:  60;

WAUTOMA        CLOUDY    58  44  60 NW14G22   30.09S
6HR MIN TEMP:  51; 6HR MAX TEMP:  60; 6HR PCP: TRACE;

WISC RAPIDS    CLOUDY    59  45  59 NW16      30.10F
6HR MIN TEMP:  52; 6HR MAX TEMP:  60;

CAMP DOUGLAS   LGT RAIN  59  45  58 NW9       30.11S
$$

WIZ011>013-019>022-031-037>040-048>050-261900-
NORTHEAST WISCONSIN

CITY           SKY/WX    TMP DP  RH WIND       PRES   REMARKS
ANTIGO         CLOUDY    52  48  88 NW16G23   30.05S
6HR MIN TEMP:  46; 6HR MAX TEMP:  54;

SHAWANO        CLOUDY    58  47  66 NW6       30.04S
6HR MIN TEMP:  52; 6HR MAX TEMP:  58;

OCONTO         CLOUDY    58  47  66 W10G20    30.01S
6HR MIN TEMP:  51; 6HR MAX TEMP:  58;

STURGEON BAY     N/A     57  48  72 NW14        N/A
6HR MIN TEMP:  53; 6HR MAX TEMP:  58;

GREEN BAY      CLOUDY    58  48  69 W17       30.04S
6HR MIN TEMP:  53; 6HR MAX TEMP:  58;

MANITOWOC      CLOUDY    58  44  60 W17G24    30.03S
6HR MIN TEMP:  54; 6HR MAX TEMP:  59;

APPLETON       PTSUNNY   57  41  54 W16G22    30.04S
CLINTONVILLE   CLOUDY    59  43  55 NW12G17   30.04F
OSHKOSH        CLOUDY    58  43  57 NW21G26   30.05S
6HR MIN TEMP:  52; 6HR MAX TEMP:  60; 6HR PCP: TRACE;

$$

WIZ032>034-041-042-053>061-261900-
SOUTHWEST WISCONSIN

CITY           SKY/WX    TMP DP  RH WIND       PRES   REMARKS
LA CROSSE      PTSUNNY   69  45  41 NW15      30.13F
6HR MIN TEMP:  58; 6HR MAX TEMP:  71;

SPARTA         PTSUNNY   63  45  52 W18       30.13S
6HR MIN TEMP:  47; 6HR MAX TEMP:  64;

VIROQUA        CLOUDY    62  45  53 NW12G22   30.14F
6HR MIN TEMP:  50; 6HR MAX TEMP:  62;

BOSCOBEL       MOSUNNY   69  44  40 NW12G20   30.14F
6HR MIN TEMP:  52; 6HR MAX TEMP:  69;

PRAIRIE DU CHI MOSUNNY   66  41  40 NW9G17    30.14S
6HR MIN TEMP:  53; 6HR MAX TEMP:  66;

PLATTEVILLE    MOSUNNY   67  44  43 NW20      30.13F
6HR MIN TEMP:  53; 6HR MAX TEMP:  67;

$$

WIZ056-057-062-063-064-067-068-261900-
SOUTH CENTRAL WISCONSIN

CITY           SKY/WX    TMP DP  RH WIND       PRES   REMARKS
REEDSBURG      PTSUNNY   62  45  55 NW15G24   30.11F
6HR MIN TEMP:  51; 6HR MAX TEMP:  62;

BARABOO/DELLS  PTSUNNY   62  45  52 NW10G17   30.10F
6HR MIN TEMP:  52; 6HR MAX TEMP:  62;

LONE ROCK      PTSUNNY   67  42  40 NW16G25   30.12S
6HR MIN TEMP:  50; 6HR MAX TEMP:  68;

MINERAL POINT  PTSUNNY   64  43  45 NW16      30.12F
MADISON        PTSUNNY   64  43  46 NW15G24   30.09F
6HR MIN TEMP:  53; 6HR MAX TEMP:  64;

MIDDLETON      PTSUNNY   64  45  48 NW14      30.10F
6HR MIN TEMP:  53; 6HR MAX TEMP:  66;

WATERTOWN      NOT AVBL
MONROE         PTSUNNY   64  41  42 NW17G30   30.10F
JANESVILLE     PTSUNNY   66  43  42 NW18G29   30.08F
$$

WIZ051-052-058>065-066-070>072-261900-
SOUTHEAST WISCONSIN

CITY           SKY/WX    TMP DP  RH WIND       PRES   REMARKS
MILWAUKEE      PTSUNNY   68  42  38 NW20G29   30.05F
6HR MIN TEMP:  58; 6HR MAX TEMP:  68;

WAUKESHA       MOSUNNY   61  43  51 NW17G24   30.08S
MILWAUKEE/TIMM PTSUNNY   63  39  42 W16G26    30.06S
RACINE         MOSUNNY   68  44  42 W14G21    30.07S
6HR MIN TEMP:  57; 6HR MAX TEMP:  68;

KENOSHA        MOSUNNY   68  44  42 W17G31    30.06F
6HR MIN TEMP:  56; 6HR MAX TEMP:  68;

FOND DU LAC    CLOUDY    57  43  59 W17G25    30.06F
6HR MIN TEMP:  53; 6HR MAX TEMP:  62;

SHEBOYGAN      LGT RAIN  58  46  64 NW15G23   30.04S
6HR MIN TEMP:  54; 6HR MAX TEMP:  61; 6HR PCP: TRACE;

WEST BEND      CLOUDY    57  43  58 NW25      30.06R
JUNEAU         CLOUDY    58  45  63 W10G21    30.09S
6HR MIN TEMP:  52; 6HR MAX TEMP:  60;

$$

LSZ147-162-261900-
LAKE SUPERIOR

STATION/POSITION TIME  TEMP    WIND        PRES    WAVE
                       AIR SEA DIR/SP/G            HT/PER
                 (UTC) (F)     (DEG/KT/KT) (MB)    (FT/S)
W MID LAKE BUOY  1750   45 39  240/ 12/ 12 1018.4F   1/ 3
DEVILS ISLAND    1800   56     210/  8/ 10 1018.7F
SAXON HARBOR     1740   62      80/  3/  5 1019.0F
$$

LMZ867-665-643>646-261900-
LAKE MICHIGAN

STATION/POSITION TIME  TEMP    WIND        PRES    WAVE
                       AIR SEA DIR/SP/G            HT/PER
                 (UTC) (F)     (DEG/KT/KT) (MB)    (FT/S)
CHAMBERS ISLAND  1740   55     250/  3/  9 1015.6S
S GREEN BAY BUOY 1800   56     270/ 12/ 16 1016.1
N MID LAKE BUOY  1750   54 56  250/  8/  8 1015.5S   1/ 3
NORTHPORT PIER   1740   57     310/ 11/ 16 1015.2S
KEWAUNEE LAKESHO 1748   56     280/  9/ 19 1016.0S
SHEBOYGAN LAKESH 1800   58     300/ 16/ 22 1017.0R
PORT WA



USA.gov is the U.S. government's official web portal to all federal, state and local government web resources and services.